This is the latest recevied weather packets stored in our database for station/object WW4HG. If no packets are shown the sender has not sent any weather packets the latest 10 day(s).
| Time | Temp. | Humidity | Pressure | Rain* | Wind** | Luminosity | Snow |
|---|---|---|---|---|---|---|---|
| 1777994258 | 23.33° C | 42% | 1019.4 hPa | 0 mm | - | 404 W/m² | - |
| 1777993956 | 23.33° C | 41% | 1019.7 hPa | 0 mm | - | 406 W/m² | - |
| 1777993652 | 23.33° C | 42% | 1019.7 hPa | 0 mm | - | 401 W/m² | - |
| 1777993350 | 23.33° C | 42% | 1019.7 hPa | 0 mm | - | 392 W/m² | - |
| 1777993044 | 23.33° C | 42% | 1020.1 hPa | 0 mm | - | 392 W/m² | - |
| 1777992743 | 23.33° C | 42% | 1019.7 hPa | 0 mm | - | 390 W/m² | - |
| 1777992440 | 23.33° C | 43% | 1019.4 hPa | 0 mm | - | 386 W/m² | - |
| 1777992138 | 22.78° C | 42% | 1019.4 hPa | 0 mm | - | 385 W/m² | - |
| 1777991835 | 22.78° C | 42% | 1019.4 hPa | 0 mm | - | 380 W/m² | - |
| 1777991532 | 22.22° C | 43% | 1019.4 hPa | 0 mm | - | 374 W/m² | - |
| 1777991229 | 22.22° C | 45% | 1019.7 hPa | 0 mm | - | 369 W/m² | - |
| 1777990926 | 22.22° C | 44% | 1019.4 hPa | 0 mm | - | 367 W/m² | - |
| 1777990624 | 22.22° C | 44% | 1019.7 hPa | 0 mm | - | 361 W/m² | - |
| 1777990017 | 22.22° C | 46% | 1019.7 hPa | 0 mm | - | 354 W/m² | - |
| 1777989714 | 22.22° C | 47% | 1019.7 hPa | 0 mm | - | 349 W/m² | - |
| 1777989410 | 22.22° C | 46% | 1019.7 hPa | 0 mm | - | 347 W/m² | - |
| 1777989107 | 22.22° C | 45% | 1019.7 hPa | 0 mm | - | 343 W/m² | - |
| 1777988802 | 21.67° C | 46% | 1019.7 hPa | 0 mm | - | 338 W/m² | - |
| 1777988501 | 21.67° C | 49% | 1019.7 hPa | 0 mm | - | 333 W/m² | - |
| 1777988197 | 21.11° C | 47% | 1019.7 hPa | 0 mm | - | 328 W/m² | - |
| 1777987893 | 21.11° C | 48% | 1019.7 hPa | 0 mm | - | 322 W/m² | - |
| 1777987589 | 20.56° C | 49% | 1019.7 hPa | 0 mm | - | 316 W/m² | - |
| 1777987287 | 20.56° C | 51% | 1019.4 hPa | 0 mm | - | 310 W/m² | - |
| 1777986984 | 20.56° C | 51% | 1019.7 hPa | 0 mm | - | 307 W/m² | - |
| 1777986681 | 20° C | 51% | 1019.4 hPa | 0 mm | - | 301 W/m² | - |
* Rain latest hour (hover to see other rain measurements)
** Current wind speed in m/s (hover to see current wind gust speed)